QPF
0.01 0.01 0.01 0.01 0.01 0.01 0.02 0.01 0.01 0.01 0.02 0.03 0.05 0.07 0.07 0.06 0.05 0.04 0.04 0.03 0.02 0.02 0.02 0.02 0.02 0.02 0.03 0.05 0.04 0.04 0.05 0.04 0.03 0.01 0.01 0.01 0.01 0.01 0.00 0.01 0.01 0.01 0.01
0.01 0.02 0.02 0.02 0.02 0.01 0.01 0.01 0.01 0.01 0.01 0.02 0.03 0.05 0.08 0.09 0.06 0.05 0.05 0.03 0.02 0.03 0.02 0.01 0.01 0.01 0.03 0.05 0.05 0.04 0.05 0.05 0.03 0.01 0.01 0.01 0.01 0.01 0.01 0.00 0.01 0.01 0.02
0.01 0.01 0.02 0.02 0.02 0.02 0.02 0.01 0.01 0.01 0.01 0.01 0.03 0.04 0.06 0.11 0.12 0.08 0.07 0.05 0.03 0.03 0.03 0.02 0.01 0.01 0.02 0.04 0.05 0.04 0.05 0.05 0.03 0.01 0.01 0.00 0.00 0.00 0.00 0.00 0.01 0.01 0.02
0.01 0.01 0.01 0.01 0.01 0.02 0.02 0.01 0.01 0.01 0.01 0.01 0.03 0.04 0.05 0.08 0.11 0.09 0.07 0.06 0.05 0.03 0.04 0.03 0.03 0.04 0.03 0.03 0.05 0.05 0.04 0.04 0.03 0.01 0.01 0.00 0.00 0.00 0.00 0.00 0.01 0.01 0.02
0.01 0.01 0.01 0.01 0.01 0.01 0.01 0.01 0.01 0.02 0.02 0.02 0.03 0.04 0.05 0.06 0.07 0.09 0.09 0.08 0.06 0.05 0.04 0.04 0.04 0.05 0.04 0.04 0.05 0.05 0.05 0.04 0.03 0.02 0.01 0.01 0.00 0.00 0.00 0.00 0.00 0.01 0.01
0.01 0.01 0.01 0.02 0.02 0.02 0.01 0.01 0.01 0.01 0.02 0.02 0.02 0.04 0.05 0.06 0.07 0.09 0.09 0.10 0.08 0.06 0.05 0.05 0.04 0.04 0.04 0.04 0.05 0.05 0.06 0.04 0.03 0.02 0.01 0.01 0.01 0.00 0.00 0.00 0.00 0.01 0.01
0.01 0.01 0.01 0.02 0.02 0.02 0.02 0.01 0.01 0.01 0.02 0.02 0.02 0.02 0.03 0.04 0.06 0.08 0.08 0.08 0.08 0.07 0.05 0.05 0.06 0.05 0.04 0.03 0.04 0.04 0.05 0.04 0.03 0.02 0.01 0.01 0.01 0.00 0.00 0.00 0.00 0.00 0.01
0.01 0.01 0.01 0.01 0.01 0.02 0.02 0.01 0.01 0.01 0.02 0.02 0.02 0.02 0.03 0.03 0.05 0.06 0.07 0.07 0.06 0.05 0.05 0.04 0.05 0.06 0.04 0.03 0.03 0.04 0.04 0.03 0.02 0.02 0.01 0.01 0.02 0.01 0.01 0.00 0.01 0.01 0.01
0.01 0.01 0.01 0.01 0.01 0.01 0.02 0.02 0.01 0.01 0.02 0.02 0.02 0.02 0.02 0.03 0.04 0.05 0.06 0.06 0.06 0.05 0.05 0.05 0.04 0.05 0.06 0.05 0.03 0.03 0.03 0.03 0.02 0.02 0.01 0.01 0.01 0.02 0.01 0.01 0.01 0.01 0.01
0.01 0.01 0.01 0.01 0.01 0.01 0.02 0.02 0.02 0.02 0.02 0.02 0.03 0.03 0.03 0.03 0.04 0.04 0.05 0.06 0.06 0.06 0.05 0.06 0.06 0.05 0.06 0.06 0.05 0.04 0.03 0.03 0.02 0.02 0.01 0.01 0.02 0.02 0.03 0.02 0.01 0.01 0.01
0.01 0.01 0.01 0.01 0.01 0.01 0.01 0.01 0.02 0.02 0.02 0.03 0.03 0.04 0.04 0.04 0.04 0.05 0.05 0.05 0.05 0.06 0.07 0.06 0.07 0.07 0.06 0.06 0.05 0.04 0.03 0.03 0.02 0.02 0.02 0.02 0.02 0.02 0.03 0.04 0.02 0.01 0.01
0.01 0.01 0.01 0.01 0.01 0.01 0.01 0.01 0.01 0.02 0.02 0.02 0.02 0.03 0.04 0.05 0.05 0.05 0.05 0.05 0.05 0.05 0.06 0.06 0.06 0.06 0.06 0.06 0.06 0.05 0.04 0.03 0.02 0.01 0.01 0.02 0.02 0.02 0.02 0.03 0.04 0.02 0.01
0.01 0.01 0.01 0.01 0.01 0.01 0.02 0.01 0.01 0.01 0.01 0.02 0.02 0.03 0.04 0.05 0.05 0.06 0.06 0.06 0.06 0.05 0.05 0.05 0.05 0.04 0.04 0.05 0.06 0.06 0.05 0.04 0.03 0.02 0.01 0.02 0.02 0.02 0.02 0.02 0.03 0.03 0.01
0.01 0.01 0.01 0.01 0.01 0.01 0.02 0.01 0.01 0.01 0.01 0.02 0.02 0.02 0.03 0.04 0.05 0.05 0.06 0.06 0.06 0.05 0.04 0.04 0.04 0.03 0.03 0.04 0.06 0.07 0.07 0.06 0.04 0.03 0.02 0.02 0.02 0.02 0.02 0.02 0.02 0.03 0.02
0.01 0.01 0.02 0.02 0.02 0.02 0.02 0.01 0.01 0.01 0.01 0.02 0.02 0.02 0.03 0.03 0.04 0.05 0.05 0.06 0.06 0.05 0.04 0.03 0.03 0.03 0.02 0.03 0.03 0.06 0.07 0.07 0.07 0.05 0.04 0.03 0.03 0.03 0.04 0.04 0.03 0.03 0.03
0.01 0.01 0.02 0.02 0.02 0.02 0.02 0.02 0.02 0.01 0.01 0.02 0.02 0.02 0.03 0.03 0.03 0.04 0.04 0.05 0.05 0.05 0.05 0.04 0.04 0.03 0.02 0.02 0.03 0.04 0.07 0.08 0.07 0.07 0.06 0.06 0.06 0.04 0.04 0.04 0.04 0.04 0.04
0.01 0.01 0.01 0.02 0.02 0.02 0.02 0.02 0.02 0.01 0.02 0.02 0.02 0.02 0.02 0.03 0.03 0.03 0.03 0.04 0.04 0.04 0.04 0.04 0.04 0.03 0.03 0.03 0.03 0.05 0.05 0.07 0.07 0.06 0.05 0.06 0.06 0.06 0.05 0.04 0.05 0.05 0.04
0.01 0.01 0.01 0.01 0.02 0.02 0.02 0.02 0.02 0.01 0.01 0.02 0.02 0.02 0.02 0.02 0.02 0.02 0.02 0.03 0.03 0.03 0.04 0.04 0.04 0.04 0.04 0.04 0.04 0.05 0.06 0.06 0.05 0.06 0.06 0.06 0.06 0.05 0.05 0.05 0.05 0.04 0.04
0.01 0.01 0.01 0.02 0.01 0.01 0.01 0.01 0.01 0.02 0.02 0.02 0.03 0.03 0.03 0.03 0.03 0.02 0.02 0.02 0.02 0.03 0.03 0.03 0.04 0.04 0.04 0.04 0.05 0.05 0.06 0.06 0.06 0.05 0.05 0.06 0.05 0.05 0.05 0.06 0.06 0.05 0.04
0.01 0.01 0.01 0.01 0.01 0.02 0.02 0.01 0.01 0.02 0.02 0.03 0.03 0.03 0.03 0.03 0.03 0.02 0.02 0.02 0.02 0.02 0.03 0.03 0.04 0.04 0.04 0.04 0.05 0.05 0.05 0.05 0.06 0.06 0.06 0.06 0.05 0.05 0.05 0.05 0.05 0.05 0.05
0.01 0.01 0.01 0.01 0.01 0.02 0.02 0.02 0.02 0.02 0.02 0.03 0.03 0.03 0.03 0.03 0.02 0.02 0.02 0.02 0.02 0.02 0.02 0.03 0.03 0.04 0.04 0.04 0.05 0.05 0.04 0.04 0.04 0.05 0.06 0.06 0.06 0.06 0.06 0.05 0.04 0.04 0.04
0.00 0.01 0.01 0.01 0.01 0.01 0.02 0.02 0.02 0.02 0.02 0.02 0.03 0.03 0.03 0.02 0.02 0.02 0.02 0.02 0.02 0.02 0.03 0.03 0.04 0.04 0.04 0.04 0.05 0.05 0.04 0.03 0.04 0.04 0.04 0.05 0.07 0.07 0.07 0.06 0.05 0.04 0.04
0.00 0.00 0.00 0.01 0.01 0.01 0.01 0.02 0.02 0.02 0.02 0.02 0.03 0.03 0.03 0.02 0.02 0.02 0.02 0.02 0.02 0.02 0.02 0.03 0.03 0.04 0.04 0.04 0.04 0.04 0.04 0.04 0.04 0.04 0.04 0.04 0.06 0.07 0.08 0.07 0.05 0.05 0.04
0.00 0.00 0.00 0.00 0.01 0.01 0.01 0.01 0.01 0.02 0.02 0.02 0.02 0.02 0.02 0.02 0.02 0.02 0.02 0.02 0.02 0.02 0.02 0.02 0.02 0.03 0.04 0.04 0.05 0.05 0.05 0.04 0.04 0.04 0.04 0.05 0.05 0.06 0.06 0.07 0.07 0.05 0.04
0.00 0.00 0.00 0.00 0.00 0.01 0.01 0.01 0.02 0.02 0.02 0.02 0.02 0.02 0.02 0.02 0.02 0.02 0.02 0.02 0.02 0.02 0.02 0.02 0.02 0.03 0.03 0.03 0.04 0.05 0.04 0.03 0.03 0.03 0.04 0.05 0.05 0.05 0.05 0.06 0.07 0.05 0.04
0.00 0.00 0.00 0.00 0.01 0.01 0.01 0.01 0.02 0.02 0.01 0.02 0.02 0.02 0.01 0.02 0.02 0.02 0.02 0.02 0.02 0.02 0.02 0.02 0.03 0.03 0.03 0.04 0.05 0.05 0.04 0.03 0.03 0.03 0.04 0.04 0.03 0.03 0.03 0.03 0.04 0.04 0.04
MSLP
1037.73 1037.78 1037.81 1037.78 1037.64 1037.34 1036.84 1036.14 1035.28 1034.34 1033.41 1032.56 1031.86 1031.33 1030.95 1030.69 1030.49 1030.27 1030.00 1029.67 1029.28 1028.87 1028.50 1028.21 1028.01 1027.90 1027.86 1027.83 1027.76 1027.60 1027.32 1026.92 1026.44 1025.94 1025.48 1025.11 1024.88 1024.80 1024.85 1025.01 1025.21 1025.40 1025.56
1038.05 1038.06 1038.07 1038.06 1037.98 1037.78 1037.40 1036.85 1036.14 1035.32 1034.47 1033.66 1032.96 1032.39 1031.95 1031.61 1031.32 1031.02 1030.69 1030.29 1029.85 1029.41 1028.99 1028.65 1028.41 1028.27 1028.21 1028.17 1028.10 1027.97 1027.72 1027.37 1026.94 1026.46 1026.01 1025.63 1025.36 1025.22 1025.21 1025.29 1025.42 1025.56 1025.68
1038.37 1038.33 1038.31 1038.30 1038.27 1038.17 1037.94 1037.55 1037.00 1036.32 1035.58 1034.83 1034.14 1033.54 1033.03 1032.61 1032.24 1031.86 1031.46 1031.01 1030.53 1030.03 1029.56 1029.17 1028.86 1028.66 1028.54 1028.46 1028.37 1028.24 1028.03 1027.73 1027.36 1026.94 1026.53 1026.16 1025.88 1025.70 1025.62 1025.62 1025.67 1025.74 1025.80
1038.74 1038.66 1038.60 1038.59 1038.61 1038.59 1038.49 1038.25 1037.86 1037.33 1036.70 1036.02 1035.34 1034.70 1034.13 1033.63 1033.17 1032.72 1032.26 1031.76 1031.24 1030.70 1030.18 1029.72 1029.34 1029.05 1028.85 1028.70 1028.58 1028.44 1028.26 1028.01 1027.71 1027.37 1027.02 1026.69 1026.42 1026.21 1026.08 1026.01 1025.98 1025.96 1025.95
1039.20 1039.09 1039.00 1038.98 1039.02 1039.07 1039.07 1038.96 1038.71 1038.30 1037.76 1037.12 1036.45 1035.78 1035.14 1034.56 1034.02 1033.51 1033.00 1032.47 1031.91 1031.35 1030.79 1030.27 1029.81 1029.43 1029.14 1028.92 1028.74 1028.59 1028.42 1028.23 1028.00 1027.75 1027.47 1027.21 1026.96 1026.75 1026.58 1026.44 1026.33 1026.23 1026.14
1039.73 1039.61 1039.50 1039.47 1039.51 1039.60 1039.67 1039.65 1039.49 1039.17 1038.69 1038.08 1037.39 1036.68 1035.98 1035.33 1034.72 1034.16 1033.61 1033.07 1032.50 1031.92 1031.34 1030.77 1030.25 1029.79 1029.41 1029.11 1028.88 1028.70 1028.55 1028.40 1028.24 1028.07 1027.87 1027.66 1027.45 1027.25 1027.05 1026.86 1026.69 1026.52 1026.36
1040.31 1040.20 1040.08 1040.03 1040.06 1040.16 1040.26 1040.29 1040.18 1039.90 1039.44 1038.83 1038.11 1037.35 1036.59 1035.88 1035.22 1034.62 1034.06 1033.51 1032.96 1032.38 1031.79 1031.20 1030.63 1030.11 1029.66 1029.29 1029.01 1028.80 1028.65 1028.53 1028.42 1028.31 1028.18 1028.02 1027.84 1027.65 1027.43 1027.21 1026.99 1026.77 1026.55
1040.90 1040.81 1040.69 1040.62 1040.64 1040.72 1040.81 1040.84 1040.73 1040.45 1039.98 1039.35 1038.60 1037.79 1036.97 1036.21 1035.52 1034.90 1034.34 1033.80 1033.27 1032.72 1032.14 1031.54 1030.95 1030.38 1029.88 1029.45 1029.11 1028.87 1028.70 1028.59 1028.51 1028.44 1028.35 1028.23 1028.07 1027.88 1027.66 1027.41 1027.16 1026.90 1026.66
1041.45 1041.39 1041.28 1041.20 1041.19 1041.24 1041.29 1041.29 1041.15 1040.83 1040.33 1039.66 1038.86 1038.01 1037.15 1036.35 1035.64 1035.02 1034.47 1033.96 1033.46 1032.94 1032.38 1031.79 1031.18 1030.59 1030.04 1029.56 1029.18 1028.89 1028.70 1028.58 1028.50 1028.43 1028.35 1028.24 1028.09 1027.90 1027.67 1027.41 1027.14 1026.87 1026.62
1041.92 1041.91 1041.82 1041.73 1041.70 1041.70 1041.70 1041.63 1041.44 1041.07 1040.51 1039.80 1038.96 1038.07 1037.19 1036.38 1035.65 1035.03 1034.50 1034.02 1033.55 1033.05 1032.52 1031.94 1031.32 1030.71 1030.12 1029.60 1029.17 1028.84 1028.61 1028.45 1028.35 1028.26 1028.17 1028.05 1027.89 1027.69 1027.45 1027.19 1026.91 1026.65 1026.40
1042.29 1042.33 1042.27 1042.20 1042.14 1042.10 1042.03 1041.89 1041.62 1041.19 1040.58 1039.82 1038.96 1038.05 1037.16 1036.34 1035.62 1035.01 1034.48 1034.01 1033.56 1033.08 1032.55 1031.97 1031.34 1030.70 1030.09 1029.53 1029.06 1028.68 1028.40 1028.20 1028.06 1027.94 1027.82 1027.67 1027.49 1027.28 1027.03 1026.76 1026.49 1026.24 1026.00
1042.57 1042.66 1042.65 1042.60 1042.52 1042.43 1042.30 1042.08 1041.74 1041.23 1040.58 1039.78 1038.90 1037.99 1037.11 1036.30 1035.59 1034.98 1034.46 1033.99 1033.52 1033.03 1032.49 1031.89 1031.24 1030.58 1029.93 1029.34 1028.82 1028.40 1028.08 1027.83 1027.65 1027.49 1027.34 1027.16 1026.96 1026.73 1026.47 1026.21 1025.94 1025.70 1025.48
1042.76 1042.93 1042.97 1042.94 1042.85 1042.72 1042.52 1042.23 1041.80 1041.24 1040.54 1039.73 1038.85 1037.95 1037.09 1036.30 1035.60 1034.99 1034.46 1033.96 1033.46 1032.93 1032.35 1031.71 1031.02 1030.33 1029.65 1029.03 1028.48 1028.03 1027.67 1027.39 1027.17 1026.98 1026.79 1026.60 1026.38 1026.13 1025.87 1025.61 1025.35 1025.11 1024.89
1042.91 1043.15 1043.25 1043.23 1043.14 1042.96 1042.69 1042.32 1041.83 1041.21 1040.48 1039.67 1038.80 1037.94 1037.10 1036.34 1035.65 1035.04 1034.48 1033.94 1033.38 1032.79 1032.15 1031.46 1030.73 1030.00 1029.29 1028.64 1028.07 1027.59 1027.22 1026.92 1026.67 1026.46 1026.26 1026.05 1025.82 1025.58 1025.31 1025.05 1024.79 1024.55 1024.32
1043.04 1043.34 1043.47 1043.47 1043.36 1043.13 1042.80 1042.36 1041.81 1041.15 1040.40 1039.60 1038.77 1037.94 1037.15 1036.42 1035.74 1035.12 1034.53 1033.93 1033.32 1032.66 1031.94 1031.19 1030.41 1029.64 1028.90 1028.24 1027.66 1027.18 1026.79 1026.49 1026.24 1026.02 1025.81 1025.60 1025.37 1025.12 1024.86 1024.59 1024.33 1024.08 1023.84
1043.14 1043.48 1043.64 1043.64 1043.49 1043.22 1042.82 1042.32 1041.72 1041.04 1040.29 1039.51 1038.72 1037.95 1037.21 1036.52 1035.86 1035.23 1034.61 1033.96 1033.28 1032.55 1031.77 1030.96 1030.13 1029.33 1028.58 1027.90 1027.32 1026.84 1026.46 1026.16 1025.91 1025.70 1025.49 1025.28 1025.06 1024.81 1024.55 1024.28 1024.01 1023.74 1023.48
1043.21 1043.56 1043.72 1043.70 1043.51 1043.19 1042.74 1042.19 1041.55 1040.86 1040.13 1039.39 1038.66 1037.95 1037.28 1036.63 1036.00 1035.37 1034.72 1034.03 1033.30 1032.51 1031.68 1030.82 1029.96 1029.14 1028.38 1027.70 1027.13 1026.66 1026.28 1025.98 1025.74 1025.53 1025.32 1025.11 1024.89 1024.64 1024.38 1024.11 1023.82 1023.54 1023.25
1043.22 1043.54 1043.67 1043.61 1043.38 1043.01 1042.52 1041.95 1041.30 1040.62 1039.93 1039.24 1038.58 1037.94 1037.33 1036.74 1036.14 1035.52 1034.86 1034.16 1033.39 1032.57 1031.70 1030.82 1029.95 1029.13 1028.37 1027.70 1027.14 1026.67 1026.29 1025.99 1025.74 1025.52 1025.30 1025.08 1024.85 1024.60 1024.34 1024.06 1023.76 1023.46 1023.15
1043.11 1043.38 1043.46 1043.35 1043.09 1042.69 1042.18 1041.61 1040.98 1040.34 1039.70 1039.08 1038.49 1037.92 1037.37 1036.83 1036.27 1035.67 1035.03 1034.32 1033.54 1032.72 1031.85 1030.98 1030.12 1029.30 1028.56 1027.90 1027.34 1026.87 1026.48 1026.16 1025.88 1025.64 1025.40 1025.16 1024.91 1024.65 1024.38 1024.09 1023.79 1023.48 1023.16
1042.86 1043.06 1043.07 1042.93 1042.64 1042.24 1041.75 1041.20 1040.62 1040.03 1039.46 1038.91 1038.39 1037.89 1037.40 1036.91 1036.38 1035.82 1035.19 1034.50 1033.74 1032.93 1032.09 1031.24 1030.41 1029.63 1028.90 1028.26 1027.70 1027.21 1026.80 1026.45 1026.14 1025.85 1025.57 1025.30 1025.02 1024.74 1024.46 1024.17 1023.87 1023.56 1023.24
1042.45 1042.56 1042.53 1042.37 1042.09 1041.71 1041.27 1040.78 1040.26 1039.75 1039.25 1038.77 1038.31 1037.86 1037.42 1036.96 1036.46 1035.92 1035.32 1034.65 1033.93 1033.16 1032.37 1031.56 1030.77 1030.03 1029.33 1028.70 1028.13 1027.63 1027.19 1026.79 1026.43 1026.09 1025.77 1025.46 1025.15 1024.86 1024.56 1024.27 1023.98 1023.68 1023.37
1041.89 1041.93 1041.88 1041.72 1041.47 1041.16 1040.78 1040.37 1039.94 1039.50 1039.07 1038.65 1038.24 1037.83 1037.41 1036.96 1036.48 1035.95 1035.38 1034.74 1034.06 1033.34 1032.59 1031.84 1031.11 1030.40 1029.74 1029.12 1028.55 1028.03 1027.56 1027.12 1026.71 1026.32 1025.95 1025.61 1025.28 1024.96 1024.66 1024.38 1024.10 1023.82 1023.53
1041.20 1041.21 1041.15 1041.03 1040.85 1040.62 1040.34 1040.02 1039.68 1039.32 1038.94 1038.56 1038.18 1037.77 1037.35 1036.90 1036.42 1035.89 1035.32 1034.71 1034.07 1033.39 1032.70 1032.01 1031.33 1030.67 1030.03 1029.43 1028.87 1028.33 1027.83 1027.36 1026.91 1026.49 1026.09 1025.72 1025.38 1025.06 1024.76 1024.48 1024.22 1023.96 1023.70
1040.44 1040.45 1040.42 1040.36 1040.26 1040.12 1039.94 1039.72 1039.46 1039.16 1038.83 1038.47 1038.09 1037.67 1037.23 1036.76 1036.25 1035.71 1035.15 1034.55 1033.93 1033.30 1032.66 1032.02 1031.38 1030.76 1030.15 1029.57 1029.01 1028.47 1027.96 1027.47 1027.00 1026.57 1026.16 1025.78 1025.44 1025.13 1024.84 1024.58 1024.34 1024.10 1023.86
1039.66 1039.70 1039.73 1039.74 1039.73 1039.68 1039.58 1039.44 1039.24 1038.99 1038.69 1038.33 1037.93 1037.50 1037.02 1036.51 1035.98 1035.42 1034.85 1034.26 1033.66 1033.05 1032.44 1031.84 1031.24 1030.65 1030.07 1029.50 1028.95 1028.42 1027.91 1027.43 1026.97 1026.54 1026.15 1025.79 1025.46 1025.17 1024.91 1024.67 1024.45 1024.23 1024.01
1038.92 1039.00 1039.08 1039.16 1039.22 1039.24 1039.22 1039.13 1038.97 1038.75 1038.46 1038.10 1037.68 1037.22 1036.71 1036.18 1035.62 1035.04 1034.46 1033.87 1033.28 1032.69 1032.10 1031.51 1030.93 1030.36 1029.80 1029.25 1028.72 1028.20 1027.71 1027.25 1026.82 1026.43 1026.06 1025.74 1025.44 1025.18 1024.94 1024.73 1024.52 1024.31 1024.10
Thickness
5515 5515 5515 5517 5519 5520 5522 5523 5524 5525 5524 5524 5525 5525 5526 5527 5528 5528 5528 5528 5527 5526 5526 5525 5524 5524 5525 5526 5526 5527 5528 5528 5530 5532 5532 5533 5533 5534 5534 5535 5537 5538 5540
5502 5502 5503 5505 5506 5508 5509 5511 5512 5513 5514 5514 5515 5515 5516 5517 5518 5517 5517 5517 5517 5516 5515 5515 5514 5514 5515 5515 5515 5516 5517 5517 5518 5522 5525 5526 5524 5523 5522 5523 5524 5526 5527
5486 5488 5489 5491 5493 5495 5497 5499 5501 5502 5502 5503 5504 5504 5504 5505 5506 5506 5507 5506 5506 5506 5505 5504 5505 5505 5505 5505 5505 5506 5507 5507 5507 5510 5514 5518 5522 5515 5513 5512 5512 5513 5514
5473 5474 5475 5478 5480 5482 5484 5486 5488 5490 5491 5492 5493 5495 5497 5498 5499 5498 5497 5496 5496 5495 5494 5494 5495 5494 5494 5494 5495 5495 5496 5496 5497 5497 5498 5501 5503 5504 5504 5502 5500 5500 5500
5459 5459 5461 5463 5465 5468 5470 5473 5476 5478 5479 5481 5482 5484 5486 5487 5488 5487 5487 5486 5485 5485 5484 5484 5484 5484 5484 5484 5484 5484 5484 5485 5487 5487 5486 5486 5487 5489 5492 5493 5490 5487 5487
5444 5445 5445 5447 5450 5454 5457 5460 5463 5465 5467 5469 5471 5473 5474 5475 5476 5476 5476 5476 5475 5474 5473 5473 5473 5473 5473 5473 5473 5473 5473 5474 5474 5474 5475 5475 5476 5477 5479 5480 5478 5476 5475
5430 5430 5431 5433 5435 5439 5442 5445 5449 5452 5454 5456 5458 5461 5463 5464 5466 5466 5466 5466 5466 5465 5464 5463 5462 5462 5462 5462 5461 5461 5461 5462 5462 5462 5463 5463 5463 5463 5464 5465 5464 5463 5462
5415 5415 5415 5417 5420 5423 5427 5430 5435 5438 5441 5443 5446 5448 5451 5452 5454 5455 5455 5456 5456 5456 5455 5453 5452 5451 5450 5450 5450 5450 5450 5450 5450 5450 5450 5450 5449 5449 5450 5451 5451 5451 5450
5400 5400 5402 5403 5405 5408 5412 5416 5420 5424 5427 5430 5433 5436 5438 5440 5442 5443 5443 5443 5444 5444 5443 5442 5441 5440 5439 5439 5438 5439 5439 5438 5438 5438 5437 5437 5436 5436 5436 5436 5437 5439 5442
5386 5386 5387 5389 5391 5394 5397 5401 5405 5409 5412 5416 5419 5422 5425 5427 5429 5430 5431 5432 5432 5432 5431 5431 5431 5430 5429 5428 5427 5428 5428 5427 5427 5426 5425 5425 5424 5423 5422 5422 5423 5425 5427
5372 5373 5374 5375 5377 5380 5384 5387 5391 5394 5397 5401 5405 5407 5410 5413 5415 5417 5419 5420 5421 5421 5420 5420 5420 5419 5418 5417 5416 5416 5416 5416 5416 5415 5414 5413 5412 5411 5410 5409 5409 5410 5412
5359 5359 5361 5363 5365 5368 5370 5373 5376 5379 5383 5386 5390 5393 5396 5399 5401 5404 5405 5407 5408 5409 5409 5409 5408 5408 5407 5406 5406 5405 5405 5406 5406 5405 5403 5402 5401 5400 5399 5398 5398 5398 5399
5346 5347 5349 5350 5353 5354 5357 5359 5362 5365 5368 5371 5375 5379 5382 5385 5388 5390 5392 5393 5395 5397 5397 5397 5397 5397 5396 5395 5395 5395 5395 5395 5395 5395 5394 5393 5391 5390 5389 5388 5387 5387 5386
5334 5334 5336 5338 5339 5341 5343 5345 5347 5350 5354 5358 5361 5364 5368 5371 5374 5376 5378 5380 5382 5383 5385 5385 5385 5385 5385 5384 5384 5384 5385 5384 5384 5384 5384 5383 5382 5381 5380 5378 5377 5375 5374
5322 5322 5323 5325 5326 5328 5330 5331 5334 5337 5340 5344 5348 5350 5353 5356 5359 5361 5363 5366 5368 5370 5371 5372 5373 5373 5373 5373 5374 5374 5374 5374 5374 5373 5372 5372 5371 5370 5369 5368 5367 5365 5363
5311 5310 5311 5312 5313 5314 5316 5318 5321 5324 5327 5331 5334 5337 5339 5342 5344 5346 5349 5351 5353 5356 5358 5359 5360 5361 5361 5362 5362 5362 5363 5364 5364 5363 5362 5361 5360 5358 5357 5357 5357 5356 5354
5299 5298 5299 5299 5300 5301 5302 5305 5307 5310 5313 5317 5320 5323 5326 5328 5330 5332 5334 5337 5340 5342 5344 5346 5348 5349 5349 5349 5350 5350 5351 5352 5353 5352 5351 5351 5350 5348 5347 5346 5345 5345 5344
5286 5286 5286 5287 5288 5288 5290 5292 5295 5297 5300 5303 5306 5309 5312 5314 5316 5318 5320 5323 5325 5328 5330 5333 5334 5336 5336 5337 5338 5338 5338 5340 5341 5340 5340 5340 5339 5338 5336 5335 5334 5335 5335
5274 5274 5273 5274 5275 5277 5278 5280 5283 5285 5287 5290 5293 5295 5297 5299 5301 5304 5306 5308 5311 5314 5316 5318 5320 5322 5323 5324 5324 5325 5326 5328 5329 5329 5329 5330 5329 5328 5327 5326 5325 5325 5325
5263 5263 5263 5263 5264 5265 5266 5268 5270 5272 5274 5277 5279 5282 5284 5286 5288 5290 5292 5294 5297 5300 5302 5305 5307 5309 5311 5311 5312 5313 5315 5316 5317 5318 5318 5319 5319 5319 5317 5317 5316 5316 5316
5252 5251 5251 5252 5252 5253 5254 5256 5258 5259 5261 5263 5267 5269 5271 5273 5275 5277 5279 5281 5284 5287 5289 5292 5295 5296 5298 5299 5300 5301 5303 5304 5305 5306 5307 5308 5307 5307 5307 5307 5307 5307 5305
5242 5241 5240 5240 5240 5240 5241 5244 5245 5247 5249 5252 5255 5258 5260 5261 5263 5265 5267 5269 5271 5274 5277 5279 5282 5284 5286 5287 5289 5290 5291 5292 5293 5294 5295 5296 5295 5296 5295 5295 5295 5293 5292
5231 5230 5228 5229 5229 5229 5229 5231 5233 5235 5237 5241 5244 5246 5248 5250 5251 5253 5256 5257 5259 5262 5265 5267 5271 5273 5274 5276 5277 5279 5280 5281 5281 5282 5283 5283 5283 5283 5283 5283 5282 5281 5280
5219 5218 5217 5218 5218 5218 5218 5219 5221 5223 5225 5229 5232 5234 5236 5238 5240 5241 5243 5245 5247 5250 5252 5255 5258 5260 5262 5264 5265 5266 5268 5269 5269 5270 5270 5270 5270 5270 5270 5270 5270 5269 5269
5208 5206 5206 5206 5207 5207 5207 5208 5210 5211 5214 5217 5220 5222 5225 5227 5228 5230 5232 5234 5236 5237 5240 5243 5245 5248 5251 5252 5253 5254 5256 5257 5258 5258 5258 5258 5258 5258 5259 5258 5258 5257 5257
5196 5195 5195 5195 5195 5196 5197 5198 5199 5200 5202 5206 5209 5211 5213 5215 5217 5219 5221 5223 5224 5227 5229 5231 5233 5236 5238 5240 5242 5244 5246 5247 5247 5247 5247 5248 5248 5248 5248 5248 5247 5247 5246